TimeCEST,TemperatureF,Dew PointF,Humidity,Sea Level PressureIn,VisibilityMPH,Wind Direction,Wind SpeedMPH,Gust SpeedMPH,PrecipitationIn,Events,Conditions,WindDirDegrees,DateUTC
6:00 AM,60.8,59.0,94,30.06,6.2,WSW,2.3,-,N/A,,Partly Cloudy,250,2012-10-10 04:00:00
6:30 AM,60.8,59.0,94,30.06,6.2,West,4.6,-,N/A,,Partly Cloudy,270,2012-10-10 04:30:00
7:00 AM,60.8,59.0,94,30.06,6.2,West,5.8,-,N/A,,Scattered Clouds,260,2012-10-10 05:00:00
7:30 AM,60.8,59.0,94,30.06,6.2,WNW,5.8,-,N/A,,Scattered Clouds,290,2012-10-10 05:30:00
8:00 AM,60.8,59.0,94,30.04,6.2,North,5.8,-,N/A,Rain,Light Rain,350,2012-10-10 06:00:00
8:30 AM,60.8,59.0,94,30.01,6.2,Calm,Calm,-,N/A,,Scattered Clouds,0,2012-10-10 06:30:00
9:00 AM,60.8,59.0,94,30.04,6.2,Calm,Calm,-,N/A,,Scattered Clouds,0,2012-10-10 07:00:00
9:30 AM,60.8,59.0,94,30.04,6.2,SSE,2.3,-,N/A,,Partly Cloudy,160,2012-10-10 07:30:00
10:00 AM,60.8,60.8,100,30.04,6.2,South,5.8,-,N/A,,Partly Cloudy,170,2012-10-10 08:00:00
10:30 AM,62.6,60.8,94,30.06,6.2,South,4.6,-,N/A,,Partly Cloudy,170,2012-10-10 08:30:00
11:00 AM,62.6,60.8,94,30.06,6.2,South,5.8,-,N/A,,Partly Cloudy,190,2012-10-10 09:00:00
11:30 AM,64.4,60.8,88,30.06,6.2,SW,3.5,-,N/A,,Scattered Clouds,230,2012-10-10 09:30:00
12:00 PM,68.0,60.8,78,30.06,6.2,WSW,4.6,-,N/A,,Scattered Clouds,240,2012-10-10 10:00:00
12:30 PM,68.0,60.8,78,30.06,6.2,WSW,8.1,-,N/A,,Scattered Clouds,240,2012-10-10 10:30:00
1:00 PM,69.8,59.0,68,30.06,6.2,SW,9.2,-,N/A,,Scattered Clouds,230,2012-10-10 11:00:00
1:30 PM,73.4,59.0,61,30.04,6.2,SW,8.1,-,N/A,,Scattered Clouds,220,2012-10-10 11:30:00
2:00 PM,73.4,59.0,61,30.04,6.2,SSW,5.8,-,N/A,,Scattered Clouds,210,2012-10-10 12:00:00
3:00 PM,73.4,57.2,57,30.01,6.2,WSW,10.4,-,N/A,,Scattered Clouds,240,2012-10-10 13:00:00
3:30 PM,73.4,55.4,53,29.98,6.2,WSW,9.2,-,N/A,,Scattered Clouds,240,2012-10-10 13:30:00
4:00 PM,75.2,55.4,50,29.98,6.2,WSW,8.1,-,N/A,,Scattered Clouds,250,2012-10-10 14:00:00
4:30 PM,75.2,53.6,47,29.98,6.2,WSW,10.4,-,N/A,,Scattered Clouds,250,2012-10-10 14:30:00
5:00 PM,71.6,57.2,60,29.98,6.2,NNW,10.4,-,N/A,,Scattered Clouds,330,2012-10-10 15:00:00
5:30 PM,71.6,57.2,60,29.98,6.2,NNW,12.7,-,N/A,,Scattered Clouds,330,2012-10-10 15:30:00
6:00 PM,71.6,57.2,60,29.98,6.2,NW,11.5,-,N/A,,Scattered Clouds,320,2012-10-10 16:00:00
6:30 PM,69.8,57.2,64,29.98,6.2,NW,10.4,-,N/A,,Partly Cloudy,320,2012-10-10 16:30:00
7:00 PM,69.8,57.2,64,29.98,6.2,NW,10.4,-,N/A,,Scattered Clouds,310,2012-10-10 17:00:00
7:30 PM,66.2,55.4,68,29.98,6.2,NW,10.4,-,N/A,,Scattered Clouds,320,2012-10-10 17:30:00
8:00 PM,66.2,55.4,68,29.98,6.2,NW,4.6,-,N/A,,Scattered Clouds,310,2012-10-10 18:00:00
8:30 PM,66.2,55.4,68,29.98,6.2,WNW,5.8,-,N/A,,Scattered Clouds,300,2012-10-10 18:30:00
9:00 PM,64.4,55.4,73,29.98,6.2,WNW,4.6,-,N/A,,Partly Cloudy,290,2012-10-10 19:00:00
9:30 PM,66.2,53.6,64,29.98,6.2,West,5.8,-,N/A,,Partly Cloudy,280,2012-10-10 19:30:00
10:00 PM,64.4,53.6,68,29.98,6.2,West,4.6,-,N/A,,Partly Cloudy,280,2012-10-10 20:00:00
10:30 PM,62.6,53.6,72,29.98,6.2,West,4.6,-,N/A,,Partly Cloudy,280,2012-10-10 20:30:00